When you browse on this site, cookies collect data to enhance your experience and personalize the content and advertising you see.
Visit our Privacy Policy to learn more. By continuing to use the site, you agree to this use of cookies and data.
  • In Germany
  • List of Countries
  • For 7 days
  • Water Temperature
  • Weather Map
  • Weather Widgets
  • user-avatar
    Login

    Hourly Weather Nowinki

    Today, 2 June, Tuesday

    Time Temperature Precipitation Wind Pressure Humidity
    00:00 +10°C° 1 mm 2 mps 752 mmHg 87%
    01:00 +11°C° 0 mm 1 mps 751 mmHg 93%
    02:00 +9°C° 0.2 mm 2 mps 751 mmHg 93%
    03:00 +9°C° 0.2 mm 2 mps 750 mmHg 94%
    04:00 +8°C° 0.2 mm 3 mps 750 mmHg 94%
    05:00 +9°C° 0 mm 3 mps 750 mmHg 88%
    06:00 +11°C° 0 mm 4 mps 750 mmHg 82%
    07:00 +12°C° 0 mm 4 mps 751 mmHg 76%
    08:00 +13°C° 0 mm 4 mps 750 mmHg 69%
    09:00 +14°C° 0 mm 5 mps 750 mmHg 62%
    10:00 +15°C° 0 mm 5 mps 750 mmHg 54%
    11:00 +16°C° 0 mm 5 mps 749 mmHg 53%
    12:00 +17°C° 0 mm 5 mps 749 mmHg 52%
    13:00 +17°C° 0 mm 6 mps 749 mmHg 50%
    14:00 +17°C° 0 mm 6 mps 748 mmHg 51%
    15:00 +17°C° 0 mm 6 mps 748 mmHg 52%
    16:00 +17°C° 0 mm 6 mps 747 mmHg 54%
    17:00 +16°C° 0.1 mm 5 mps 747 mmHg 59%
    18:00 +15°C° 0.1 mm 4 mps 747 mmHg 65%
    19:00 +13°C° 0.1 mm 4 mps 747 mmHg 71%
    20:00 +12°C° 0 mm 3 mps 747 mmHg 74%
    21:00 +11°C° 0 mm 3 mps 747 mmHg 78%
    22:00 +10°C° 0 mm 3 mps 746 mmHg 81%
    23:00 +9°C° 0 mm 3 mps 746 mmHg 84%

    Tomorrow, 3 June, Wednesday

    Time Temperature Precipitation Wind Pressure Humidity
    00:00 +9°C° 0 mm 3 mps 746 mmHg 87%
    01:00 +8°C° 0 mm 3 mps 746 mmHg 90%
    02:00 +8°C° 0 mm 3 mps 746 mmHg 90%
    03:00 +8°C° 0 mm 3 mps 745 mmHg 90%
    04:00 +8°C° 0 mm 3 mps 745 mmHg 89%
    05:00 +9°C° 0.1 mm 3 mps 745 mmHg 87%
    06:00 +10°C° 0.1 mm 3 mps 745 mmHg 84%
    07:00 +10°C° 0.1 mm 4 mps 745 mmHg 82%
    08:00 +10°C° 0.1 mm 3 mps 744 mmHg 82%
    09:00 +11°C° 0.1 mm 3 mps 744 mmHg 83%
    10:00 +11°C° 0.1 mm 3 mps 744 mmHg 83%
    11:00 +12°C° 0 mm 3 mps 744 mmHg 78%
    12:00 +14°C° 0 mm 3 mps 744 mmHg 72%
    13:00 +16°C° 0 mm 3 mps 743 mmHg 66%
    14:00 +15°C° 0.3 mm 4 mps 743 mmHg 66%
    15:00 +17°C° 0.3 mm 4 mps 743 mmHg 66%
    16:00 +17°C° 0.3 mm 4 mps 742 mmHg 65%
    17:00 +16°C° 0.2 mm 3 mps 742 mmHg 70%
    18:00 +14°C° 0.2 mm 3 mps 742 mmHg 75%
    19:00 +14°C° 0.2 mm 2 mps 742 mmHg 80%
    20:00 +13°C° 0 mm 2 mps 742 mmHg 83%
    21:00 +12°C° 0 mm 2 mps 742 mmHg 87%
    22:00 +10°C° 0 mm 2 mps 742 mmHg 90%
    23:00 +9°C° 0 mm 2 mps 742 mmHg 91%

    Day after tomorrow, 4 June, Thursday

    Time Temperature Precipitation Wind Pressure Humidity
    00:00 +9°C° 0 mm 2 mps 742 mmHg 92%
    01:00 +8°C° 0 mm 2 mps 742 mmHg 93%
    02:00 +8°C° 0 mm 2 mps 741 mmHg 94%
    03:00 +8°C° 0 mm 2 mps 741 mmHg 94%
    04:00 +9°C° 0 mm 1 mps 741 mmHg 95%
    05:00 +10°C° 0 mm 1 mps 741 mmHg 90%
    06:00 +12°C° 0 mm 1 mps 741 mmHg 85%
    07:00 +13°C° 0 mm 1 mps 741 mmHg 80%
    08:00 +15°C° 0 mm 1 mps 741 mmHg 71%
    09:00 +18°C° 0 mm 1 mps 741 mmHg 63%
    10:00 +18°C° 0 mm 0 mps 741 mmHg 54%
    11:00 +20°C° 0 mm 1 mps 741 mmHg 52%
    12:00 +21°C° 0 mm 1 mps 740 mmHg 49%
    13:00 +20°C° 0 mm 2 mps 740 mmHg 46%
    14:00 +21°C° 0 mm 2 mps 740 mmHg 46%
    15:00 +21°C° 0 mm 2 mps 740 mmHg 47%
    16:00 +21°C° 0 mm 2 mps 739 mmHg 47%
    17:00 +20°C° 0 mm 2 mps 739 mmHg 53%
    18:00 +18°C° 0 mm 2 mps 739 mmHg 58%
    19:00 +17°C° 0 mm 2 mps 739 mmHg 64%
    20:00 +17°C° 0 mm 3 mps 739 mmHg 66%
    21:00 +16°C° 0 mm 3 mps 739 mmHg 68%
    22:00 +14°C° 0 mm 3 mps 739 mmHg 70%
    23:00 +14°C° 0 mm 4 mps 738 mmHg 72%

    5 June, Friday

    Time Temperature Precipitation Wind Pressure Humidity
    00:00 +13°C° 0 mm 4 mps 738 mmHg 74%
    01:00 +13°C° 0 mm 5 mps 737 mmHg 76%
    02:00 +13°C° 0 mm 5 mps 737 mmHg 80%
    03:00 +12°C° 0 mm 5 mps 736 mmHg 83%
    04:00 +12°C° 0 mm 5 mps 736 mmHg 87%
    05:00 +14°C° 0 mm 5 mps 736 mmHg 86%
    06:00 +15°C° 0 mm 5 mps 735 mmHg 84%
    07:00 +16°C° 0 mm 5 mps 735 mmHg 83%
    08:00 +17°C° 0 mm 5 mps 735 mmHg 80%
    09:00 +19°C° 0 mm 5 mps 736 mmHg 76%
    10:00 +20°C° 0 mm 5 mps 736 mmHg 73%
    11:00 +21°C° 0.1 mm 6 mps 736 mmHg 71%
    12:00 +21°C° 0.1 mm 7 mps 737 mmHg 69%
    13:00 +22°C° 0.1 mm 7 mps 737 mmHg 67%
    14:00 +21°C° 0.1 mm 6 mps 738 mmHg 70%
    15:00 +20°C° 0.1 mm 5 mps 738 mmHg 73%
    16:00 +19°C° 0.1 mm 4 mps 739 mmHg 75%
    17:00 +18°C° 0 mm 4 mps 739 mmHg 78%
    18:00 +17°C° 0 mm 3 mps 739 mmHg 81%
    19:00 +16°C° 0 mm 2 mps 740 mmHg 84%
    20:00 +14°C° 0.5 mm 3 mps 740 mmHg 87%
    21:00 +13°C° 0.5 mm 3 mps 740 mmHg 90%
    22:00 +12°C° 0.5 mm 4 mps 741 mmHg 93%
    23:00 +12°C° 1.1 mm 3 mps 741 mmHg 93%

    6 June, Saturday

    Time Temperature Precipitation Wind Pressure Humidity
    00:00 +13°C° 1.1 mm 2 mps 741 mmHg 93%
    01:00 +12°C° 1.1 mm 2 mps 741 mmHg 93%
    02:00 +12°C° 0 mm 2 mps 742 mmHg 93%
    03:00 +10°C° 0 mm 3 mps 742 mmHg 94%
    04:00 +10°C° 0 mm 3 mps 743 mmHg 94%
    05:00 +11°C° 0 mm 4 mps 743 mmHg 89%
    06:00 +13°C° 0 mm 5 mps 743 mmHg 84%
    07:00 +14°C° 0 mm 5 mps 744 mmHg 79%
    08:00 +16°C° 0 mm 6 mps 744 mmHg 73%
    09:00 +17°C° 0 mm 6 mps 744 mmHg 67%
    10:00 +19°C° 0 mm 6 mps 744 mmHg 61%
    11:00 +20°C° 0.1 mm 7 mps 745 mmHg 59%
    12:00 +21°C° 0.1 mm 7 mps 745 mmHg 57%
    13:00 +22°C° 0.1 mm 8 mps 745 mmHg 55%
    14:00 +22°C° 0 mm 7 mps 745 mmHg 56%
    15:00 +22°C° 0 mm 7 mps 745 mmHg 56%
    16:00 +22°C° 0 mm 6 mps 745 mmHg 57%
    17:00 +21°C° 0 mm 5 mps 746 mmHg 62%
    18:00 +20°C° 0 mm 4 mps 746 mmHg 68%
    19:00 +19°C° 0 mm 3 mps 746 mmHg 74%
    20:00 +18°C° 0 mm 3 mps 746 mmHg 77%
    21:00 +17°C° 0 mm 3 mps 747 mmHg 80%
    22:00 +16°C° 0 mm 3 mps 747 mmHg 84%
    23:00 +14°C° 0 mm 3 mps 748 mmHg 83%

    7 June, Sunday

    Time Temperature Precipitation Wind Pressure Humidity
    00:00 +14°C° 0 mm 3 mps 748 mmHg 82%
    01:00 +14°C° 0 mm 3 mps 748 mmHg 81%
    02:00 +16°C° 0 mm 3 mps 748 mmHg 80%
    03:00 +16°C° 0 mm 2 mps 748 mmHg 78%
    04:00 +16°C° 0 mm 2 mps 748 mmHg 77%
    05:00 +17°C° 0 mm 3 mps 748 mmHg 77%
    06:00 +18°C° 0 mm 3 mps 748 mmHg 76%
    07:00 +19°C° 0 mm 3 mps 749 mmHg 76%
    08:00 +20°C° 0.3 mm 4 mps 749 mmHg 70%
    09:00 +22°C° 0.3 mm 5 mps 749 mmHg 65%
    10:00 +25°C° 0.3 mm 5 mps 749 mmHg 60%
    11:00 +25°C° 0.3 mm 5 mps 749 mmHg 58%
    12:00 +26°C° 0.3 mm 5 mps 748 mmHg 57%
    13:00 +26°C° 0.3 mm 5 mps 748 mmHg 56%
    14:00 +26°C° 0.1 mm 5 mps 748 mmHg 57%
    15:00 +26°C° 0.1 mm 5 mps 747 mmHg 58%
    16:00 +26°C° 0.1 mm 4 mps 747 mmHg 60%
    17:00 +25°C° 0.1 mm 4 mps 747 mmHg 66%
    18:00 +22°C° 0.1 mm 4 mps 747 mmHg 72%
    19:00 +21°C° 0.1 mm 4 mps 746 mmHg 78%
    20:00 +20°C° 0 mm 4 mps 746 mmHg 81%
    21:00 +19°C° 0 mm 4 mps 746 mmHg 83%
    22:00 +18°C° 0 mm 4 mps 746 mmHg 86%
    23:00 +18°C° 0 mm 3 mps 746 mmHg 87%
    Show more